Regional Weather Roundup
Issued by NWS Charleston, SC

Current Version | Previous Version | Graphics & Text | Print | Product List | Glossary On
Versions: 1 2 3 4 5 6 7 8 9 10 11 12 13 14 15 16 17 18 19 20 21 22 23 24 25 26 27 28 29 30 31 32 33 34 35 36 37 38 39 40 41 42 43 44 45 46 47 48 49 50
000 ASUS42 KCHS 230810 RWRCHS REGIONAL WEATHER ROUNDUP NATIONAL WEATHER SERVICE CHARLESTON SC 400 AM EDT TUE SEP 23 2014 NOTE: "FAIR" INDICATES FEW OR NO CLOUDS BELOW 12,000 FEET WITH NO SIGNIFICANT WEATHER AND/OR OBSTRUCTIONS TO VISIBILITY. NOT ALL STATIONS ARE QUALITY CONTROLLED BY THE NATIONAL WEATHER SERVICE. USE DATA WITH CAUTION...ESPECIALLY DEWPOINT OBSERVATIONS. SCZ027-030-031-034>040-042>050-230900- ...SOUTH CAROLINA... CITY SKY/WX TMP DP RH WIND PRES REMARKS N CHARLESTON CLOUDY 68 62 81 NE10 30.07S WATERFRONT PRK NOT AVBL FORT JOHNSON NOT AVBL MOUNT PLEASANT FAIR 66 64 94 CALM 30.07R JOHNS ISLAND SUNNY 68 66 94 NE9 30.06R PINOPOLIS N/A 70 64 83 NE18 29.97F MONCKS CORNER N/A 66 64 94 NE8 30.05F SUMMERVILLE NOT AVBL BEAUFORT MCAS CLOUDY 69 64 84 MISG 30.05R BEAUFORT ARPT FAIR 70 66 88 NE12G17 30.04R HILTON HEAD IS CLOUDY 72 64 78 NE7 30.06R GEORGETOWN NOT AVBL WALTERBORO CLOUDY 68 N/A N/A NE8 30.05S ORANGEBURG CLOUDY 64 60 87 NE7 30.07F BARNWELL LGT RAIN 64 64 100 E3 30.10R AIKEN FAIR 64 64 100 NE7 30.12F MANNING FAIR 64 N/A N/A NE7 30.07F KINGSTREE NOT AVBL COLUMBIA LGT RAIN 66 60 81 N7 30.10F SUMTER CLOUDY 64 60 88 NE7 30.08S FLORENCE CLOUDY 64 61 90 N7 30.11S MYRTLE BEACH CLOUDY 66 61 82 N10 30.09R N MYRTLE BEACH CLOUDY 65 62 90 N7 30.09S $$ GAZ063-065-086>088-099>101-113>116-118-119-134-136>141-150-230900- ...GEORGIA... CITY SKY/WX TMP DP RH WIND PRES REMARKS SAVANNAH ARPT CLOUDY 68 61 78 NW10 30.06R HUNTER AAF CLOUDY 68 62 82 NW10 30.04R FORT STEWART CLOUDY 67 63 86 N7 30.05R STATESBORO NOT AVBL SYLVANIA RAIN 67 66 97 E7 30.09S CLAXTON TSTM 66 66 100 CALM 30.08R THOMSON CLOUDY 65 65 100 NW3 30.14S AUGUSTA-BUSH CLOUDY 65 62 90 N5 30.07F AUGUSTA-DANIEL CLOUDY 67 61 81 NE9 30.09S SWAINSBORO CLOUDY 68 68 100 CALM 30.09S VIDALIA LGT RAIN 64 64 100 E7 30.07F ALMA CLOUDY 68 64 87 NE5 30.05F WAYCROSS CLOUDY 72 67 82 NE8 30.05R JESUP CLOUDY 72 66 83 N8 30.06R BRUNSWICK CLOUDY 73 64 73 NE9 30.03S SAINT SIMONS CLOUDY 73 68 84 NE13 30.02R $$ SCZ027-028-034-036>038-045-046-048>050-GAZ119-141-230900- ...LAKE AND SUPPLEMENTAL COASTAL OBSERVATIONS... STATION/POSITION TIME TEMP WIND PRES WAVE SWELL AIR SEA DIR/SP/G HT/PER HT/PER/DIR (UTC) (F) (DEG/KT/KT) (MB) (FT/S) (FT/S/D) UPR LAKE MARION NOT AVBL WINYAH BAY 0700 66 350/ 8 1018.0S LAKE MURRAY 0700 67 30/ 5/ 7 1018.6F ACE BASIN NERRS 0700 67 30/ 3 1017.0F FORT PULASKI 0800 74 40/ 11/ 13 1017.1R SAPELO ISLAND 0700 73 60/ 10 1017.0S $$ ANZ835-935-AMZ111-154-330-350-352-354-374-450-454-472-230900- ...C-MAN AND BUOY OBSERVATIONS... STATION/POSITION TIME TEMP WIND PRES WAVE SWELL AIR SEA DIR/SP/G HT/PER HT/PER/DIR (UTC) (F) (DEG/KT/KT) (MB) (FT/S) (FT/S/D) FOLLY BEACH CMAN 0800 69 30/ 15/ 18 1018.4R BUOY 41004 0800 75 81 360/ 25/ 31 1015.0F 4/ 5 2/ 7 BUOY 41008 0800 75 82 80/ 17/ 21 1016.4F 5/ 6 5E ST. MARYS GA 0700 83 N/A 4/ 5 FRYING PAN BUOY NOT AVBL BUOY 41025 0800 73 20/ 17/ 21 1019.6R 4/ 5 2/ 70/12 CAPE LOOKOUT NC 0800 73 40/ 21/ 24 1019.3S BUOY 41002 0736 79 81 70/ 4/ 6 1017.8F 3/ 7 3/120/ 7 BUOY 41010 0800 78 84 140/ 4/ 6 1016.1F 2/ 8 2/ 70/ 8 BUOY 41012 NOT AVBL ST AUGUSTINE FL 0800 78 120/ 6/ 8 1015.8F CAPERS NEARSHORE 0700 70 20/ 16/ 19 N/A FRIPP NEARSHORE NOT AVBL $$

USA.gov is the U.S. government's official web portal to all federal, state and local government web resources and services.